TimeCDT,TemperatureF,Dew PointF,Humidity,Sea Level PressureIn,VisibilityMPH,Wind Direction,Wind SpeedMPH,Gust SpeedMPH,PrecipitationIn,Events,Conditions,WindDirDegrees,DateUTC
12:15 AM,65.3,65.3,100,29.79,4.0,SSE,6.9,-,N/A,,Overcast,160,2013-10-06 05:15:00
12:35 AM,65.3,65.3,100,29.80,2.5,South,8.1,-,N/A,,Overcast,190,2013-10-06 05:35:00
12:55 AM,65.3,65.3,100,29.80,2.0,SSW,6.9,-,N/A,,Overcast,200,2013-10-06 05:55:00
1:15 AM,65.3,65.3,100,29.80,2.5,South,6.9,-,N/A,,Overcast,190,2013-10-06 06:15:00
1:35 AM,65.5,65.5,100,29.80,3.0,SSW,6.9,-,N/A,,Overcast,200,2013-10-06 06:35:00
2:15 AM,65.3,65.3,100,29.79,4.0,South,9.2,-,N/A,,Overcast,190,2013-10-06 07:15:00
2:35 AM,65.3,65.3,100,29.79,4.0,South,8.1,-,N/A,,Overcast,170,2013-10-06 07:35:00
2:55 AM,64.9,64.9,100,29.77,3.0,South,6.9,-,N/A,,Overcast,170,2013-10-06 07:55:00
3:15 AM,64.9,64.9,100,29.77,4.0,South,9.2,-,0.01,Rain,Light Rain,180,2013-10-06 08:15:00
3:35 AM,64.9,64.9,100,29.76,4.0,South,6.9,-,0.01,,Overcast,170,2013-10-06 08:35:00
3:55 AM,64.9,64.9,100,29.77,5.0,South,8.1,-,0.01,,Overcast,180,2013-10-06 08:55:00
4:15 AM,65.3,65.3,100,29.78,5.0,SSW,12.7,-,N/A,Rain,Light Rain,210,2013-10-06 09:15:00
4:35 AM,62.1,61.7,99,29.78,7.0,WNW,6.9,20.7,N/A,,Overcast,300,2013-10-06 09:35:00
4:55 AM,59.2,59.2,100,29.78,5.0,NW,10.4,-,N/A,Rain,Rain,310,2013-10-06 09:55:00
5:15 AM,58.1,58.1,100,29.79,4.0,West,6.9,-,0.01,,Drizzle,280,2013-10-06 10:15:00
5:35 AM,56.5,56.5,100,29.81,3.0,West,11.5,16.1,0.01,Rain,Rain,270,2013-10-06 10:35:00
5:55 AM,54.9,54.7,99,29.80,2.5,West,6.9,-,0.01,,Drizzle,280,2013-10-06 10:55:00
6:15 AM,54.5,54.3,99,29.79,3.0,West,5.8,-,N/A,,Drizzle,280,2013-10-06 11:15:00
6:35 AM,54.5,54.5,100,29.79,7.0,WNW,4.6,-,N/A,,Overcast,300,2013-10-06 11:35:00
6:55 AM,54.1,53.4,97,29.78,10.0,WNW,3.5,-,N/A,Rain,Light Rain,300,2013-10-06 11:55:00
7:15 AM,54.3,52.7,94,29.79,7.0,WSW,5.8,-,N/A,Rain,Heavy Rain,250,2013-10-06 12:15:00
7:35 AM,53.8,53.2,98,29.78,4.0,West,3.5,-,0.02,Rain,Light Rain,280,2013-10-06 12:35:00
7:55 AM,53.8,53.2,98,29.79,5.0,West,5.8,-,0.02,,Drizzle,260,2013-10-06 12:55:00
8:15 AM,53.6,53.1,98,29.78,4.0,WNW,4.6,-,0.02,Rain,Rain,290,2013-10-06 13:15:00
8:35 AM,53.6,53.1,98,29.80,3.0,WSW,8.1,-,0.03,Rain,Rain,250,2013-10-06 13:35:00
8:55 AM,53.1,52.9,99,29.78,3.0,WSW,5.8,-,0.10,Rain,Rain,240,2013-10-06 13:55:00
9:15 AM,52.2,51.8,99,29.79,5.0,WSW,8.1,-,N/A,,Drizzle,250,2013-10-06 14:15:00
9:35 AM,51.4,50.5,97,29.78,5.0,WNW,3.5,-,0.04,Rain,Light Rain,300,2013-10-06 14:35:00
9:55 AM,51.3,49.8,95,29.79,4.0,SW,4.6,-,0.07,Rain,Rain,220,2013-10-06 14:55:00
10:15 AM,51.1,49.1,93,29.79,10.0,Calm,Calm,-,N/A,,Light Drizzle,0,2013-10-06 15:15:00
10:35 AM,51.8,50.4,95,29.79,10.0,SSW,4.6,-,N/A,,Overcast,210,2013-10-06 15:35:00
10:55 AM,52.3,50.9,95,29.79,10.0,SSW,3.5,-,N/A,,Overcast,200,2013-10-06 15:55:00
11:15 AM,52.7,50.9,94,29.78,10.0,SSW,3.5,-,N/A,,Overcast,210,2013-10-06 16:15:00
11:35 AM,53.4,51.6,94,29.78,10.0,SSW,5.8,-,N/A,,Overcast,210,2013-10-06 16:35:00
11:55 AM,54.3,52.2,92,29.77,10.0,South,5.8,-,N/A,,Overcast,170,2013-10-06 16:55:00
12:15 PM,55.4,52.0,88,29.77,10.0,SW,8.1,-,N/A,,Overcast,230,2013-10-06 17:15:00
12:35 PM,58.1,51.1,77,29.76,10.0,West,5.8,-,N/A,,Mostly Cloudy,270,2013-10-06 17:35:00
12:55 PM,57.9,48.6,71,29.74,10.0,SW,5.8,-,N/A,,Mostly Cloudy,230,2013-10-06 17:55:00
1:15 PM,57.2,47.5,70,29.74,10.0,West,5.8,-,N/A,,Mostly Cloudy,260,2013-10-06 18:15:00
1:35 PM,59.9,48.6,66,29.73,10.0,WSW,4.6,-,N/A,,Overcast,240,2013-10-06 18:35:00
1:55 PM,61.7,46.4,57,29.72,10.0,SW,11.5,16.1,N/A,,Mostly Cloudy,220,2013-10-06 18:55:00
2:15 PM,61.7,46.0,56,29.72,10.0,WSW,12.7,-,N/A,,Scattered Clouds,250,2013-10-06 19:15:00
2:35 PM,61.5,44.2,53,29.71,10.0,SW,12.7,17.3,N/A,,Scattered Clouds,230,2013-10-06 19:35:00
2:55 PM,61.9,43.9,52,29.71,10.0,SW,9.2,19.6,N/A,,Scattered Clouds,230,2013-10-06 19:55:00
3:15 PM,60.8,43.3,53,29.71,10.0,WSW,8.1,16.1,N/A,,Mostly Cloudy,240,2013-10-06 20:15:00
3:35 PM,61.2,43.0,51,29.71,10.0,WSW,10.4,-,N/A,,Overcast,240,2013-10-06 20:35:00
3:55 PM,60.4,42.1,51,29.71,10.0,WSW,9.2,-,N/A,,Overcast,250,2013-10-06 20:55:00
4:15 PM,60.3,42.4,52,29.71,10.0,West,6.9,-,N/A,,Overcast,260,2013-10-06 21:15:00
4:35 PM,59.7,42.8,54,29.71,10.0,West,8.1,-,N/A,,Overcast,260,2013-10-06 21:35:00
4:55 PM,59.0,42.6,55,29.72,10.0,West,10.4,-,N/A,,Overcast,260,2013-10-06 21:55:00
5:15 PM,58.1,41.5,54,29.73,10.0,West,10.4,-,N/A,,Overcast,260,2013-10-06 22:15:00
5:35 PM,57.9,41.7,55,29.73,10.0,WSW,10.4,-,N/A,,Overcast,250,2013-10-06 22:35:00
5:55 PM,57.2,40.1,53,29.74,10.0,West,12.7,24.2,N/A,,Overcast,260,2013-10-06 22:55:00
6:15 PM,55.4,40.8,58,29.75,10.0,West,17.3,21.9,N/A,,Overcast,260,2013-10-06 23:15:00
6:35 PM,54.0,40.6,61,29.76,10.0,West,13.8,19.6,N/A,,Overcast,260,2013-10-06 23:35:00
6:55 PM,53.1,39.9,61,29.76,10.0,WSW,12.7,18.4,N/A,,Mostly Cloudy,250,2013-10-06 23:55:00
7:15 PM,52.3,40.1,63,29.78,10.0,WSW,12.7,-,N/A,,Mostly Cloudy,250,2013-10-07 00:15:00
7:35 PM,51.4,39.6,64,-9999,10.0,WSW,12.7,19.6,N/A,,Mostly Cloudy,250,2013-10-07 00:35:00
7:55 PM,50.2,39.9,68,29.79,10.0,West,12.7,17.3,N/A,,Mostly Cloudy,260,2013-10-07 00:55:00
8:15 PM,49.1,39.2,69,29.79,10.0,West,11.5,-,N/A,,Scattered Clouds,260,2013-10-07 01:15:00
8:35 PM,47.7,39.6,73,29.79,10.0,WSW,8.1,-,N/A,,Clear,250,2013-10-07 01:35:00
8:55 PM,46.6,40.1,78,29.79,10.0,WSW,4.6,-,N/A,,Clear,240,2013-10-07 01:55:00
9:15 PM,45.5,39.9,81,29.79,10.0,SW,3.5,-,N/A,,Clear,230,2013-10-07 02:15:00
9:35 PM,44.6,40.5,85,29.80,10.0,Calm,Calm,-,N/A,,Scattered Clouds,0,2013-10-07 02:35:00
9:55 PM,44.4,40.5,86,29.79,10.0,SW,4.6,-,N/A,,Clear,230,2013-10-07 02:55:00
10:15 PM,44.1,40.1,86,29.80,10.0,WSW,3.5,-,N/A,,Clear,240,2013-10-07 03:15:00
10:35 PM,43.3,39.6,87,29.79,10.0,SW,4.6,-,N/A,,Clear,230,2013-10-07 03:35:00
10:55 PM,43.5,39.7,87,29.79,10.0,SW,4.6,-,N/A,,Scattered Clouds,230,2013-10-07 03:55:00
11:15 PM,43.0,39.6,88,29.79,10.0,WSW,4.6,-,N/A,,Scattered Clouds,240,2013-10-07 04:15:00
11:35 PM,43.0,39.7,88,29.79,10.0,WSW,4.6,-,N/A,,Scattered Clouds,240,2013-10-07 04:35:00
11:55 PM,43.3,39.4,86,29.78,10.0,WSW,5.8,-,N/A,,Clear,240,2013-10-07 04:55:00